Preview of NWS' New Version of Forecast
This preview is not operational and should not be used for support decisions.

Regional Weather Roundup (RWR)

Issued by National Weather Service (NWS)

                            
000
ASUS46 KSEW 180310
RWRWA 

WASHINGTON REGIONAL WEATHER ROUNDUP
NATIONAL WEATHER SERVICE SEATTLE WA
800 PM PDT TUE SEP 17 2019

NOTE:"FAIR" INDICATES FEW OR NO CLOUDS BELOW 12,000 FEET WITH NO 
SIGNIFICANT WEATHER AND/OR OBSTRUCTIONS TO VISIBILITY.

WAZ507-509-555>559-180400-
SEATTLE, TACOMA, EVERETT, AND VICINITY
  
CITY           SKY/WX    TMP DP  RH WIND       PRES   REMARKS
EVERETT        CLOUDY    57  54  89 SE10      29.74R                  
BOEING FIELD   LGT RAIN  59  55  87 SE6       29.74R                  
RENTON         LGT RAIN  58  54  86 CALM      29.74R                  
SEATAC AIRPORT RAIN      57  53  86 S7        29.74R                  
JBLM-MCCHORD   LGT RAIN  55  55 100 SE3       29.74R                  
PUYALLUP       CLOUDY    57  57 100 CALM      29.75S                  
BREMERTON      LGT RAIN  55  55 100 CALM      29.74R                  
JBLM-FT LEWIS  LGT RAIN  55  55 100 SE6       29.73S                  
TACOMA NARROWS LGT RAIN  55  51  86 S6        29.73R                  
$$
 
WAZ001-503-506-510-514-515-180400-
NORTH INTERIOR
  
CITY           SKY/WX    TMP DP  RH WIND       PRES   REMARKS
BELLINGHAM     CLOUDY    61  50  67 SE9       29.72R                  
FRIDAY HARBOR  CLOUDY    54  52  93 CALM      29.72R                  
EASTSOUND      CLOUDY    59  55  88 S8        29.70R                  
PORT ANGELES   CLOUDY    54  54 100 E5        29.71R                  
EDIZ HOOK      MOCLDY    54  54  99 S6        29.70R                  
PORT TOWNSEND  CLOUDY    59  55  88 SE7       29.70R                  
NAS WHIDBEY    CLOUDY    63  53  70 SE8       29.75R                  
ARLINGTON      CLOUDY    57  54  89 N5        29.74R                  
BURLINGTON     CLOUDY    59  54  82 E3        29.73R                  
$$
 
WAZ020-022-039-040-504-511-512-180400-
SOUTHWEST INTERIOR
  
CITY           SKY/WX    TMP DP  RH WIND       PRES   REMARKS
SHELTON        LGT RAIN  58  55  90 CALM      29.70S FOG              
OLYMPIA        LGT RAIN  57  55  93 S8        29.73S                  
CHEHALIS       MOCLDY    57  57 100 S6        29.73F                  
KELSO          CLOUDY    60  57  89 SE7       29.74R                  
VANCOUVER      CLOUDY    60  57  89 VRB5      29.76R                  
SCAPPOOSE, OR  RAIN      59  57  93 SE6       29.73F                  
PORTLAND, OR   CLOUDY    61  56  83 SW9       29.76S                  
$$
 
WAZ021-516-517-180400-
WASHINGTON COAST
  
CITY           SKY/WX    TMP DP  RH WIND       PRES   REMARKS
FORKS          MOCLDY    55  54  96 E3        29.68R                  
HOQUIAM        LGT RAIN  58  57  97 S7        29.71R FOG              
ASTORIA, OR    CLOUDY    58  56  93 SE5       29.70F                  
$$
 
WAZ019-023-024-040-567>569-180400-
CASCADE MOUNTAINS AND COLUMBIA GORGE
  
CITY           SKY/WX    TMP DP  RH WIND       PRES   REMARKS
STAMPEDE PASS  NOT AVBL                                               
TROUTDALE, OR  CLOUDY    60  57  89 E3        29.77R                  
HOOD RIVER, OR LGT RAIN  57  55  94 CALM      29.78S                  
THE DALLES, OR CLOUDY    62  54  74 NW7       29.75S                  
$$

WAZ026-027-041>044-520-521-180400-
EAST SLOPES
  
CITY           SKY/WX    TMP DP  RH WIND       PRES   REMARKS
OMAK           LGT RAIN  54  50  86 CALM      29.83S                  
WENATCHEE      LGT RAIN  57  48  72 E5        29.77F                  
ELLENSBURG     MOCLDY    57  48  72 NE6       29.77F                  
YAKIMA         CLOUDY    59  50  72 CALM      29.77S                  
SUNNYSIDE ARPT CLOUDY    60  51  72 SE10      29.78S                  
YAKIMA TC      MOCLDY    57  49  74 CALM      29.76S                  
$$

WAZ028-034-035-180400-
COLUMBIA BASIN
  
CITY           SKY/WX    TMP DP  RH WIND       PRES   REMARKS
EPHRATA        CLOUDY    58  49  72 N5        29.79S                  
MOSES LAKE     PTCLDY    59  48  67 SE8       29.79F                  
PASCO          CLOUDY    68  46  45 S14       29.78F                  
RICHLAND ARPT  MOCLDY    67  49  53 SE9       29.78                   
HERMISTON, OR  MOCLDY    67  45  45 S9        29.78S                  
$$

WAZ036>038-180400-
NORTHEAST WASHINGTON
  
CITY           SKY/WX    TMP DP  RH WIND       PRES   REMARKS
SPOKANE GEIGER CLOUDY    58  43  57 NE5       29.85F                  
SPOKANE FELTS  CLOUDY    62  41  46 CALM      29.85S                  
FAIRCHILD AFB  LGT RAIN  55  46  71 CALM      29.85S                  
COEURDALENE,ID CLOUDY    59  43  55 CALM      29.87R                  
DEER PARK      CLOUDY    56  45  66 N8        29.87R                  
$$

WAZ029>033-180400-
SOUTHEAST WASHINGTON
  
CITY           SKY/WX    TMP DP  RH WIND       PRES   REMARKS
PULLMAN        CLOUDY    62  38  40 CALM      29.87R                  
LEWISTON, ID   CLOUDY    66  39  37 SE5       29.81S                  
WALLA WALLA    CLOUDY    65  43  44 S12       29.81R                  
PENDLETON, OR  MOCLDY    63  42  46 S14G26    29.80F                  
$$